Weather History for Morrisville, VT

Change the Weather History Date:

Monday, May 6, 2013

  Actual Average Record
Temperature  
Mean Temperature 60 °F 51 °F  
Max Temperature 80 °F 64 °F 80 °F (2013)
Min Temperature 39 °F 38 °F 27 °F (2001)
Degree Days  
Heating Degree Days 5 14  
Month to date heating degree days 34 91  
Since 1 July heating degree days 7300 7871  
Cooling Degree Days 0 0  
Month to date cooling degree days 0 0  
Year to date cooling degree days 0 1  
Growing Degree Days 10 (Base 50)    
Moisture  
Dew Point 34 °F    
Average Humidity 49    
Maximum Humidity 82    
Minimum Humidity 15    
Precipitation  
Precipitation 0.00 in 0.09 in 0.63 in (1997)
Month to date precipitation T 0.54  
Year to date precipitation 7.03 8.89  
Sea Level Pressure  
Sea Level Pressure 30.15 in    
Wind  
Wind Speed 3 mph (South)    
Max Wind Speed 13 mph    
Max Gust Speed 16 mph    
Visibility 10 miles    
Events      
T = Trace of Precipitation, MM = Missing Value Source: NWS Daily Summary

Daily Weather History Graph

Daily Weather History Graph

Search for Another Location

Airport:

Trip Planner

Search our weather history database for the weather conditions in past years. The results will help you decide how hot, cold, wet, or windy it might be!

Date:

Astronomy

May. 06, 2013 Rise Set
Actual Time 5:33 AM EDT 8:01 PM EDT
Civil Twilight 5:00 AM EDT 8:34 PM EDT
Nautical Twilight 4:20 AM EDT 9:15 PM EDT
Astronomical Twilight 3:34 AM EDT 10:01 PM EDT
Moon 3:42 AM EDT (5/6) 4:52 PM EDT (5/6)
Length of Visible Light 15h 33m
Length of Day
14h 27m
Waning Crescent, 11% of the Moon is Illuminated
May 6
Waning Crescent
May 9
New
May 18
First Quarter
May 25
Full
May 31
Last Quarter

Hourly Weather History & Observations

Time (EDT) Temp. Dew Point Humidity Pressure Visibility Wind Dir Wind Speed Gust Speed Precip Events Conditions
12:54 AM 53.1 °F 35.1 °F 50% 30.19 in 10.0 mi Calm Calm - N/A   Clear
1:54 AM 48.0 °F 37.0 °F 66% 30.19 in 10.0 mi Calm Calm - N/A   Clear
2:54 AM 45.0 °F 36.0 °F 71% 30.19 in 10.0 mi Calm Calm - N/A   Clear
3:54 AM 44.1 °F 36.0 °F 73% 30.19 in 10.0 mi Calm Calm - N/A   Clear
4:54 AM 41.0 °F 35.1 °F 79% 30.20 in 10.0 mi Calm Calm - N/A   Clear
5:54 AM 39.0 °F 34.0 °F 82% 30.21 in 10.0 mi Calm Calm - N/A   Clear
6:54 AM 43.0 °F 37.9 °F 82% 30.23 in 10.0 mi Calm Calm - N/A   Clear
7:54 AM 50.0 °F 37.9 °F 63% 30.23 in 10.0 mi Calm Calm - N/A   Clear
8:54 AM 57.9 °F 37.9 °F 47% 30.22 in 10.0 mi South 3.5 mph - N/A   Clear
9:54 AM 64.9 °F 37.9 °F 37% 30.21 in 10.0 mi SSE 3.5 mph - N/A   Clear
10:54 AM 69.1 °F 34.0 °F 27% 30.19 in 10.0 mi South 3.5 mph - N/A   Clear
11:54 AM 73.9 °F 36.0 °F 25% 30.17 in 10.0 mi Calm Calm - N/A   Clear
12:54 PM 75.9 °F 34.0 °F 22% 30.15 in 10.0 mi Variable 3.5 mph - N/A   Clear
1:54 PM 78.1 °F 33.1 °F 19% 30.13 in 10.0 mi NNW 3.5 mph - N/A   Clear
2:54 PM 79.0 °F 28.0 °F 15% 30.11 in 10.0 mi Variable 5.8 mph - N/A   Clear
3:54 PM 80.1 °F 28.9 °F 15% 30.09 in 10.0 mi SSW 9.2 mph - N/A   Clear
4:54 PM 79.0 °F 30.0 °F 17% 30.07 in 10.0 mi Variable 6.9 mph - N/A   Clear
5:54 PM 78.1 °F 28.9 °F 17% 30.06 in 10.0 mi SW 4.6 mph - N/A   Clear
6:54 PM 73.9 °F 25.0 °F 16% 30.06 in 10.0 mi SSE 6.9 mph - N/A   Clear
7:54 PM 69.1 °F 28.0 °F 22% 30.06 in 10.0 mi Calm Calm - N/A   Clear
8:54 PM 60.1 °F 33.1 °F 36% 30.08 in 10.0 mi Calm Calm - N/A   Clear
9:54 PM 57.9 °F 32.0 °F 37% 30.10 in 10.0 mi South 3.5 mph - N/A   Clear
10:54 PM 55.0 °F 36.0 °F 49% 30.11 in 10.0 mi South 4.6 mph - N/A   Clear
11:54 PM 50.0 °F 36.0 °F 59% 30.12 in 10.0 mi Variable 3.5 mph - N/A   Clear